Regional Weather Roundup
Issued by NWS Newport/Morehead, NC

Current Version | Previous Version | Graphics & Text | Print | Product List | Glossary On
Versions: 1 2 3 4 5 6 7 8 9 10 11 12 13 14 15 16 17 18 19 20 21 22 23 24 25 26 27 28 29 30 31 32 33 34 35 36 37 38 39 40 41 42 43 44 45 46 47 48 49 50
318 ASUS42 KMHX 130713 RWRMHX WEATHER ROUNDUP FOR EASTERN NORTH CAROLINA NATIONAL WEATHER SERVICE NEWPORT/MOREHEAD CITY NC 200 AM EST SAT FEB 13 2016 NOTE: "FAIR" INDICATES FEW OR NO CLOUDS BELOW 12,000 FEET WITH NO SIGNIFICANT WEATHER AND/OR OBSTRUCTIONS TO VISIBILITY NCZ015>017-031-032-045>047-102-103-130800- NORTH COAST CITY SKY/WX TMP DP RH WIND PRES REMARKS EDENTON CLOUDY 32 27 82 NW7 30.02F ELIZABETH CITY CLEAR 23 21 92 NW5 30.02S KITTY HAWK MOSUNNY 28 26 93 NW6 30.00S MANTEO PTCLDY 30 27 89 NW7 30.02R $$ NCZ045>047-081-094-103-104-130800- CENTRAL COAST CITY SKY/WX TMP DP RH WIND PRES REMARKS FRISCO CLOUDY 34 29 82 NW13G18 30.02R SWANQUARTER N/A 30 N/A N/A NW1 30.00S $$ NCZ095-097-098-100-101-130800- SOUTHERN COAST CITY SKY/WX TMP DP RH WIND PRES REMARKS BEAUFORT CLOUDY 33 31 92 N10 30.02S CEDAR ISLAND N/A 34 N/A N/A W12G21 30.06S JACKSONVILLE CLOUDY 32 30 92 NW6 30.04S FOG PINEY ISLAND CLOUDY N/A N/A N/A NW12 30.02R WILMINGTON CLOUDY 31 29 92 NW7 30.05S FOG $$ NCZ011>013-027>030-043-044-078>080-089-090>093-098-130800- COASTAL PLAIN CITY SKY/WX TMP DP RH WIND PRES REMARKS AHOSKIE NOT AVBL CLINTON N/A 30 30 100 CALM 30.06R FOG ELIZABETHTOWN CLOUDY 30 30 100 CALM 30.06R FOG GOLDSBORO CLEAR 28 28 100 W5 30.02S GREENVILLE CLEAR 28 27 93 W3 30.06S HAVELOCK CLOUDY 33 30 88 NW10 30.04S KENANSVILLE PTCLDY 30 30 100 CALM 30.05S FOG KINSTON PTCLDY 30 29 95 CALM 30.05R NEW BERN CLOUDY 32 29 88 W7 30.05R RICHLANDS CLOUDY 30 27 86 CALM 30.05S ROCKY MOUNT MOCLDY 28 25 88 W3 30.04S WASHINGTON PTCLDY 28 25 89 CALM 30.04R WHITEVILLE CLEAR 28 28 96 CALM 30.06S FOG $$ AMZ130-135-150-152-154-156-158-170-250-252-270-ANZ085-086-088-633-658-670-130800- MARINE OBSERVATIONS STATION/POSITION TIME TEMP WIND PRES WAVE SWELL AIR SEA DIR/SP/G HT/PER HT/PER (UTC) (F) (DEG/KT/KT) (MB) (FT/S) (FT/S) CHESAPEAKE LIGHT 0600 30 300/ 18/ 21 1016.7 64 E VA BEACH 0650 36 48 320/ 23/ 29 1014.6 4/ 5 DUCK 0600 28 300/ 12/ 15 1015.7 2 E DUCK 0611 42 N/A 2/ 7 OREGON INLET 0600 31 40 310/ 9/ 13 1016.0 13E OREGON INLT 0700 45 N/A 4/ 7 HATTERAS CG 0600 35 45 300/ 16/ 19 1015.9 DIAMOND BUOY 0650 42 71 320/ 19/ 23 1015.8 5/ 8 3/ 8 CAPE LOOKOUT NOT AVBL BEAUFORT LAB 0600 32 43 340/ 7/ 12 1015.4 30 SE NEW RVR IN 0608 40 63 1016.3 30 SE NEW RVR IN 0625 63 N/A 4/ 8 27 SE WRIGHTSVLE 0608 38 60 360/ 14/ 21 1015.7 5 SE WRIGHTSVLE 0608 36 51 310/ 10/ 14 1017.3 225 S CAPE HAT 0650 61 68 330/ 21/ 27 N/A 15/10 10/10 41 SE CHARLESTON 0650 54 68 310/ 12/ 16 1017.7 3/ 6 2/ 6 $$

USA.gov is the U.S. government's official web portal to all federal, state and local government web resources and services.